Helicity
-0 -2 19 16 17 20 23 24 25 26 25 21 17 16 15 16 15 15 12 12 10 14 14 8 15 23 26 20 12 11 19 40 53 60 62 60 46 37 25 17 16 13 25
13 6 28 21 24 29 30 28 27 25 23 17 11 9 11 14 14 14 16 16 16 17 12 6 18 20 25 25 20 15 15 27 50 81 65 60 40 35 36 29 27 21 23
25 23 33 30 30 36 32 28 28 29 27 24 24 19 21 21 20 18 18 18 20 19 15 14 34 27 27 23 19 20 22 24 29 44 74 82 52 36 32 25 24 28 28
45 53 47 42 49 50 48 42 41 35 28 25 29 30 27 24 19 22 24 25 23 21 19 20 26 25 26 21 17 14 17 26 35 30 30 34 39 25 22 26 16 24 29
84 77 79 73 74 70 66 69 72 71 75 70 71 72 48 30 23 22 26 34 32 26 23 18 13 25 23 24 23 20 18 17 21 28 30 26 12 1 -16 -24 11 17 27
94 93 87 84 88 88 84 81 76 72 73 70 71 76 75 79 91 84 79 73 49 34 31 27 24 26 26 26 23 21 21 24 26 28 20 15 11 -5 -27 -14 33 24 25
116 134 119 102 97 98 92 90 82 70 77 77 73 73 75 81 85 94 98 96 85 69 41 30 34 31 31 34 32 29 32 37 44 39 29 18 10 -13 -11 -10 32 24 18
116 120 115 117 110 101 93 84 89 87 82 85 92 99 102 98 95 93 97 104 104 107 96 76 46 43 41 43 38 33 41 44 57 58 49 39 17 1 -11 -5 11 34 25
117 118 109 97 90 93 89 88 89 94 94 96 96 94 91 92 83 80 78 81 81 82 98 107 96 82 61 39 40 55 60 58 71 77 75 69 37 15 4 -0 7 14 31
119 108 92 78 71 65 62 84 88 97 100 95 84 77 70 74 76 74 70 69 79 74 86 102 106 107 103 78 65 48 61 76 82 83 89 90 45 24 13 10 11 20 25
115 104 80 71 63 56 58 68 84 92 93 82 69 72 59 46 54 67 76 93 101 105 107 112 123 121 129 125 120 110 91 96 96 109 108 84 59 34 24 20 18 20 26
81 80 70 63 61 59 58 65 69 64 61 60 56 55 51 59 62 82 92 116 128 133 132 142 148 144 130 112 112 126 115 111 107 100 106 73 63 46 36 35 34 36 31
67 69 68 59 61 64 62 56 56 56 56 58 64 62 59 62 67 76 84 92 90 110 89 97 103 104 114 120 129 132 130 133 119 105 88 68 82 100 101 88 55 45 43
68 60 58 62 62 65 64 65 62 60 59 57 58 65 60 60 71 83 82 86 77 69 76 80 79 83 99 114 120 124 128 124 122 119 109 101 95 86 72 86 88 94 59
66 61 65 58 60 59 66 54 55 54 55 53 60 62 59 68 82 86 87 77 75 77 73 84 87 93 97 104 111 121 129 137 135 123 111 103 109 106 102 94 82 98 93
63 62 55 57 52 61 62 55 49 49 50 57 59 60 66 63 67 63 56 60 67 69 72 68 71 82 89 94 114 120 120 132 132 134 126 118 128 141 152 137 98 100 104
63 59 55 61 60 79 69 53 50 52 59 68 66 72 77 71 68 61 53 55 58 61 72 87 100 108 101 101 110 107 105 117 128 143 146 146 145 162 179 182 156 142 129
67 61 74 81 83 77 74 66 64 75 74 75 76 71 73 68 62 56 48 42 45 55 73 90 96 97 82 76 85 91 83 84 90 111 135 143 152 162 209 247 250 229 211
65 81 74 81 83 74 83 90 87 87 87 82 80 66 57 48 45 43 41 47 61 71 69 64 56 55 57 71 77 80 78 67 69 97 155 198 203 204 205 246 263 310 288
82 78 85 80 75 92 92 93 100 103 98 83 68 46 39 32 43 51 54 60 62 50 35 32 47 65 49 58 73 74 89 96 109 145 169 182 196 187 188 184 171 179 241
94 95 79 83 90 95 101 111 119 110 86 58 47 41 49 64 73 74 64 63 46 26 20 19 30 59 74 81 74 120 97 130 147 148 133 136 149 127 132 137 127 138 154
111 87 87 92 92 92 109 110 101 87 70 63 57 61 83 93 86 71 63 45 38 37 46 39 34 18 27 51 67 70 126 94 104 125 114 107 100 93 88 120 139 132 113
120 104 101 84 78 87 91 91 84 85 86 84 77 71 73 84 92 81 57 52 49 46 52 52 49 31 23 26 28 38 69 110 76 122 139 74 31 30 66 88 125 145 135
122 122 100 97 85 73 77 86 90 100 99 76 77 85 82 86 86 69 56 62 56 52 56 53 57 57 57 68 57 76 59 57 78 85 112 94 84 84 117 115 115 128 119
138 120 105 83 70 59 73 90 102 107 110 104 97 90 85 80 76 68 61 62 60 60 54 50 49 53 54 55 65 60 62 71 78 78 74 110 79 95 92 117 99 85 72
115 98 81 74 49 41 55 81 102 97 93 97 97 94 90 94 91 89 82 74 67 66 61 54 51 57 64 71 75 88 83 88 89 91 84 54 49 76 50 80 77 70 69
Wind_Speed
26 28 28 31 30 30 31 33 34 36 38 40 41 42 42 43 44 45 44 44 43 41 41 42 42 41 41 40 41 41 40 38 36 35 34 33 34 36 34 35 34 34 34
24 24 24 28 28 28 30 32 34 36 38 39 39 39 40 40 41 42 41 41 41 40 40 40 39 40 39 39 40 41 40 37 35 35 35 34 35 35 35 35 35 35 33
21 20 21 24 25 27 29 32 33 35 36 37 37 37 38 38 39 40 39 38 37 38 40 45 37 38 38 39 39 39 39 38 37 35 33 33 35 36 36 36 34 33 35
18 18 20 23 25 27 29 31 34 35 36 36 37 38 38 39 38 38 39 38 38 37 37 39 36 36 36 38 39 38 37 36 35 36 36 35 35 38 36 33 32 32 32
17 19 21 24 26 28 30 33 36 38 40 42 43 45 43 41 40 40 38 38 38 38 38 39 40 36 36 36 37 38 38 38 37 36 35 34 37 39 39 31 29 29 31
16 19 22 24 26 30 32 35 38 41 42 44 45 46 46 47 48 50 50 49 48 41 38 38 37 38 39 37 39 40 40 40 39 39 38 36 35 37 45 34 28 30 30
15 18 21 25 28 32 35 38 41 42 44 46 47 47 47 47 49 50 52 52 52 50 47 42 40 38 38 39 37 38 38 40 41 41 41 42 41 40 43 35 23 29 31
15 19 22 26 30 34 38 40 43 44 46 48 49 50 49 49 50 50 51 52 53 53 52 51 47 43 40 39 39 38 37 36 39 41 41 42 43 44 44 44 32 26 28
16 20 24 29 32 36 40 42 44 46 48 49 50 50 50 51 51 52 53 54 54 54 53 53 52 51 48 42 33 32 30 27 32 36 37 40 42 43 43 43 46 34 30
18 23 27 31 34 37 41 44 45 47 48 49 49 50 50 51 52 54 55 56 55 55 55 56 55 56 56 51 48 39 33 30 29 31 35 36 38 40 41 42 45 44 35
22 25 29 33 37 39 42 45 46 47 48 47 48 50 51 53 55 56 57 58 59 59 59 58 59 59 60 58 57 54 49 42 39 39 40 42 41 38 38 40 43 44 44
23 27 31 35 39 42 43 45 46 45 45 46 48 51 52 54 56 57 59 62 63 63 63 62 62 61 61 60 59 59 55 52 50 49 48 49 51 59 58 52 47 44 43
24 29 33 36 40 42 44 44 45 45 44 47 49 51 52 55 57 59 60 62 63 65 64 64 64 62 62 61 61 61 60 57 54 53 54 56 59 63 66 62 58 53 49
25 30 34 37 40 42 43 44 45 44 46 48 49 52 55 58 60 61 62 63 64 64 65 65 64 63 63 62 60 59 58 57 54 53 53 57 59 59 60 61 59 62 58
26 30 34 36 39 40 43 43 44 45 45 47 51 54 57 59 60 61 62 62 63 64 64 65 64 63 63 63 62 60 60 59 57 53 53 56 57 58 59 60 60 61 57
26 29 32 34 36 39 42 42 43 43 45 47 51 55 57 58 59 61 63 64 64 63 61 61 63 64 63 61 62 60 57 54 52 52 50 51 53 56 58 60 61 60 59
26 28 31 33 36 38 40 40 42 43 45 49 52 55 57 59 62 63 63 63 63 63 63 64 64 62 62 62 62 60 57 55 53 53 55 55 56 56 58 59 59 60 62
25 27 30 33 35 37 39 40 42 44 46 50 54 55 57 59 60 61 62 64 64 64 63 64 65 65 62 60 63 58 54 55 51 51 51 51 49 50 49 51 53 54 56
24 28 30 31 35 36 38 40 43 45 47 49 53 54 56 57 60 61 61 62 64 63 63 63 62 61 59 60 61 56 58 51 47 43 42 45 46 46 46 48 48 50 51
26 27 30 31 33 37 39 41 43 44 47 47 51 52 54 56 59 60 61 61 63 63 63 61 60 60 55 62 58 53 47 45 42 42 44 45 47 47 48 48 46 47 50
27 27 28 30 34 38 41 44 44 46 46 46 48 51 52 54 58 60 60 62 61 61 61 59 57 59 59 64 55 52 40 41 42 44 43 47 49 47 49 49 49 48 50
26 26 27 30 35 38 40 41 41 41 41 45 49 50 50 51 53 56 60 59 58 59 59 58 57 56 53 58 54 43 44 38 44 44 46 46 48 46 46 49 49 51 52
25 23 26 32 37 37 37 39 39 39 38 41 44 49 49 48 51 54 56 55 55 55 56 57 58 55 55 53 52 47 43 42 55 41 44 47 49 48 44 45 50 52 53
20 22 29 35 35 35 35 36 37 40 38 33 36 44 49 50 50 54 54 51 50 50 52 52 52 54 53 53 51 52 44 41 43 47 41 49 48 49 45 45 50 54 56
18 22 30 32 33 35 37 37 39 41 37 37 40 44 47 46 47 50 51 50 49 50 51 51 53 53 51 49 50 49 47 46 41 42 52 52 54 50 46 46 49 53 56
19 25 29 32 35 37 37 36 38 40 38 36 37 39 42 44 45 44 45 47 48 47 48 49 50 49 49 48 49 50 47 47 48 46 48 52 55 51 49 47 53 55 57
Wind_Direction
77 84 73 77 64 48 37 34 30 25 28 34 43 47 49 47 41 34 32 31 34 38 36 27 19 19 17 18 14 10 8 3 4 9 9 5 2 356 1 354 354 351 341
68 64 57 67 55 40 30 30 27 26 34 43 47 48 46 43 41 40 40 39 37 34 28 21 27 25 24 18 9 5 3 4 3 1 359 359 353 351 352 349 344 340 341
42 32 36 38 33 26 27 27 29 31 38 42 42 41 37 35 33 31 31 31 29 26 18 7 24 21 19 15 12 10 5 357 354 352 354 356 349 345 345 345 348 346 335
25 25 21 22 12 6 4 3 8 16 24 26 22 21 20 19 20 19 17 16 14 12 10 7 8 9 9 6 6 6 4 4 3 353 343 341 341 340 340 345 346 346 346
18 16 15 14 10 2 355 354 356 356 357 355 356 356 1 7 6 5 6 6 4 1 358 354 351 355 355 355 354 355 354 353 354 353 350 344 336 334 330 337 347 348 346
5 5 12 7 3 357 354 351 352 355 357 356 355 356 355 353 352 349 347 346 344 349 350 349 349 346 344 344 342 341 341 342 342 342 341 341 340 337 324 327 337 337 339
359 357 357 359 357 354 353 354 354 356 354 353 354 355 354 354 352 349 345 343 340 340 340 341 341 342 341 339 340 338 337 335 334 333 331 328 328 330 329 333 334 335 330
359 349 346 346 351 350 352 355 357 357 355 354 355 355 354 353 352 349 347 345 344 341 339 338 338 340 340 339 337 336 335 334 332 330 329 327 324 321 321 324 325 327 332
334 341 341 343 348 349 351 353 354 353 354 355 355 355 354 351 348 346 344 343 343 342 340 338 336 336 336 338 340 338 339 339 334 332 330 326 324 321 317 317 318 319 319
323 331 336 342 346 349 351 351 354 355 355 356 357 356 352 350 347 345 343 341 340 339 338 337 334 332 330 330 330 332 333 333 330 329 329 328 326 323 320 315 312 312 312
312 324 332 339 344 350 352 354 357 359 359 2 356 350 348 346 344 343 343 341 338 336 333 332 330 329 327 325 324 323 322 323 322 321 321 320 319 319 318 315 312 308 307
309 321 331 338 344 349 357 360 2 6 7 5 355 348 348 347 346 346 342 338 336 335 333 330 327 325 325 324 322 320 319 318 317 316 315 314 312 308 309 310 309 308 307
312 322 330 339 347 355 359 4 7 9 10 2 355 351 349 348 347 346 345 343 340 337 334 332 329 326 323 322 320 319 317 315 314 314 313 312 310 306 305 305 306 306 306
315 325 335 344 352 357 3 5 7 8 4 359 356 353 349 346 345 345 345 344 343 341 338 337 335 332 328 324 322 321 320 319 317 315 314 312 311 309 309 308 305 304 301
319 332 342 350 355 2 2 5 6 5 3 359 353 350 347 346 346 346 346 345 344 342 341 340 339 338 334 330 325 321 318 319 320 318 316 314 313 312 311 311 309 307 306
325 337 349 355 359 1 2 5 5 6 1 356 352 349 349 349 347 345 343 343 343 345 345 343 341 338 336 335 332 329 326 323 322 323 323 321 318 316 314 311 310 310 308
331 342 349 354 358 1 3 4 2 0 357 353 350 348 347 346 345 344 345 345 346 345 343 340 337 337 335 334 332 333 332 330 327 323 321 320 318 318 317 315 313 310 308
334 342 347 354 358 0 0 359 357 354 353 349 347 347 347 348 349 348 346 345 345 344 343 342 338 335 335 336 334 338 341 337 337 334 331 330 329 327 326 327 323 319 315
332 338 346 353 354 355 355 353 352 351 349 348 348 349 350 351 350 349 349 347 346 346 344 341 336 339 341 340 339 342 338 343 347 351 355 351 347 344 343 340 335 326 320
329 337 344 349 352 352 351 349 348 347 347 348 348 349 349 350 351 350 349 348 347 345 341 341 344 344 349 344 343 346 355 1 10 7 2 3 355 353 352 351 348 336 325
324 333 340 345 349 347 345 343 343 342 345 346 347 347 349 351 350 349 348 346 345 341 344 349 352 349 347 342 347 347 359 3 1 359 2 1 360 359 354 355 349 344 329
320 328 337 342 342 341 342 345 347 349 349 346 342 345 351 352 354 352 349 347 347 347 350 353 355 351 354 350 349 357 352 352 347 352 353 356 355 357 357 354 352 344 336
312 323 334 336 337 341 346 348 350 352 355 352 348 344 347 353 352 351 347 349 351 352 352 351 349 352 351 352 351 354 351 348 339 345 347 349 348 351 352 352 348 345 340
306 322 328 333 339 345 348 348 348 347 353 360 357 349 345 347 347 343 343 352 355 357 356 355 355 351 352 351 350 347 348 347 346 340 345 343 345 344 346 346 343 341 339
305 316 327 336 343 345 345 346 344 343 347 349 347 344 342 345 345 342 342 347 352 351 351 351 350 349 350 348 348 347 345 342 342 339 333 336 339 343 344 343 342 339 337
312 319 326 336 342 343 344 345 342 340 342 344 345 343 343 343 343 344 343 344 346 349 349 349 349 348 348 347 346 344 341 340 337 337 333 331 330 334 338 340 339 339 339